Weather History for Mullan Pass, ID

Change the Weather History Date:

Wednesday, April 3, 2013

  Actual Average (K3TH) Record (K3TH)
Temperature  
Mean Temperature 40 °F -  
Max Temperature 45 °F 49 °F 63 °F (1998)
Min Temperature 35 °F 31 °F 26 °F (2002)
Degree Days  
Heating Degree Days 26    
Moisture  
Dew Point 33 °F    
Average Humidity 85    
Maximum Humidity 100    
Minimum Humidity 58    
Precipitation  
Precipitation 0.00 in - - ()
Sea Level Pressure  
Sea Level Pressure 30.01 in    
Wind  
Wind Speed 4 mph (WSW)    
Max Wind Speed 8 mph    
Max Gust Speed -    
Visibility 10 miles    
Events      
Averages and records for this station are not official NWS values.
T = Trace of Precipitation, MM = Missing Value Source: NWS Daily Summary

Daily Weather History Graph

Daily Weather History Graph

Search for Another Location

Airport:

Trip Planner

Search our weather history database for the weather conditions in past years. The results will help you decide how hot, cold, wet, or windy it might be!

Date:

Astronomy

Apr. 03, 2013 Rise Set
Actual Time 6:16 AM PDT 7:15 PM PDT
Civil Twilight 5:45 AM PDT 7:47 PM PDT
Nautical Twilight 5:08 AM PDT 8:24 PM PDT
Astronomical Twilight 4:28 AM PDT 9:04 PM PDT
Moon 2:27 AM PDT (4/3) 12:07 PM PDT (4/3)
Length of Visible Light 14h 01m
Length of Day
12h 58m
Last Quarter, 43% of the Moon is Illuminated
Apr 3
Last Quarter
Apr 10
New
Apr 18
First Quarter
Apr 25
Full
May 2
Last Quarter

Hourly Weather History & Observations

Time (PDT) Temp. Windchill Dew Point Humidity Pressure Visibility Wind Dir Wind Speed Gust Speed Precip Events Conditions
12:12 AM 35.6 °F 31.7 °F 35.6 °F 100% 30.07 in 10.0 mi Variable 4.6 mph - N/A   Partly Cloudy
12:53 AM 35.1 °F 31.0 °F 35.1 °F 100% 29.95 in 9.0 mi Variable 4.6 mph - N/A   Clear
1:22 AM 35.6 °F 31.7 °F 35.6 °F 100% 30.08 in 10.0 mi West 4.6 mph - N/A   Mostly Cloudy
1:33 AM 35.6 °F 32.8 °F 35.6 °F 100% 30.08 in 10.0 mi Variable 3.5 mph - N/A   Mostly Cloudy
1:53 AM 36.0 °F 32.1 °F 35.1 °F 97% 29.96 in 10.0 mi WNW 4.6 mph - N/A   Overcast
2:04 AM 35.6 °F 31.7 °F 35.6 °F 100% 30.09 in 10.0 mi Variable 4.6 mph - N/A   Overcast
2:53 AM 37.0 °F - 35.1 °F 93% 29.96 in 10.0 mi Calm Calm - N/A   Mostly Cloudy
3:24 AM 35.6 °F 32.8 °F 35.6 °F 100% 30.09 in 10.0 mi Variable 3.5 mph - N/A   Overcast
3:53 AM 36.0 °F - 35.1 °F 97% 29.96 in 10.0 mi Calm Calm - N/A   Overcast
4:11 AM 35.6 °F - 35.6 °F 100% 30.09 in 10.0 mi Calm Calm - N/A   Overcast
4:22 AM 37.4 °F 33.8 °F 35.6 °F 93% 30.10 in 10.0 mi Variable 4.6 mph - N/A   Overcast
4:53 AM 36.0 °F 32.1 °F 35.1 °F 97% 29.97 in 10.0 mi Variable 4.6 mph - N/A   Overcast
5:06 AM 35.6 °F - 35.6 °F 100% 30.10 in 10.0 mi Calm Calm - N/A   Overcast
5:53 AM 36.0 °F 31.1 °F 35.1 °F 97% 29.98 in 10.0 mi SSW 5.8 mph - N/A   Overcast
6:53 AM 36.0 °F 31.1 °F 35.1 °F 97% 29.97 in 10.0 mi SW 5.8 mph - N/A   Overcast
7:44 AM 35.6 °F 31.7 °F 35.6 °F 100% 30.10 in 10.0 mi Variable 4.6 mph - N/A   Overcast
7:53 AM 36.0 °F - 35.1 °F 97% 29.99 in 10.0 mi Calm Calm - N/A   Overcast
8:08 AM 35.6 °F 32.8 °F 35.6 °F 100% 30.10 in 10.0 mi Variable 3.5 mph - N/A   Overcast
8:53 AM 37.0 °F 34.5 °F 35.1 °F 93% 29.98 in 10.0 mi Variable 3.5 mph - N/A   Overcast
9:35 AM 37.4 °F - 33.8 °F 87% 30.10 in 10.0 mi Calm Calm - N/A   Overcast
9:53 AM 37.0 °F 33.3 °F 34.0 °F 89% 30.00 in 10.0 mi Variable 4.6 mph - N/A   Overcast
10:53 AM 37.9 °F 34.4 °F 33.1 °F 83% 30.00 in 10.0 mi Variable 4.6 mph - N/A   Overcast
11:27 AM 41.0 °F 36.4 °F 32.0 °F 70% 30.12 in 10.0 mi Variable 6.9 mph - N/A   Mostly Cloudy
11:53 AM 43.0 °F 41.3 °F 33.1 °F 68% 29.98 in 10.0 mi Variable 3.5 mph - N/A   Mostly Cloudy
12:53 PM 43.0 °F 39.5 °F 32.0 °F 65% 29.97 in 10.0 mi Variable 5.8 mph - N/A   Mostly Cloudy
1:14 PM 44.6 °F 42.2 °F 32.0 °F 61% 30.09 in 10.0 mi West 4.6 mph - N/A   Mostly Cloudy
1:53 PM 42.1 °F 38.4 °F 32.0 °F 67% 29.96 in 10.0 mi Variable 5.8 mph - N/A   Mostly Cloudy
2:53 PM 43.0 °F 38.2 °F 28.9 °F 58% 29.96 in 10.0 mi WSW 8.1 mph - N/A   Unknown
3:53 PM 42.1 °F 37.7 °F 28.9 °F 60% 29.97 in 10.0 mi Variable 6.9 mph - N/A   Unknown
4:53 PM 42.1 °F 39.2 °F 30.9 °F 65% 29.97 in 10.0 mi Variable 4.6 mph - N/A   Unknown
5:53 PM 41.0 °F 38.0 °F 30.0 °F 65% 29.96 in 10.0 mi Variable 4.6 mph - N/A   Unknown
6:53 PM 39.9 °F - 30.0 °F 68% 29.96 in 10.0 mi Calm Calm - N/A   Clear
7:53 PM 37.9 °F 34.4 °F 30.0 °F 73% 29.96 in 10.0 mi Variable 4.6 mph - N/A   Partly Cloudy
8:53 PM 37.9 °F 34.4 °F 30.9 °F 76% 29.96 in 10.0 mi WNW 4.6 mph - N/A   Clear
9:53 PM 37.0 °F 34.5 °F 30.9 °F 79% 29.96 in 10.0 mi NW 3.5 mph - N/A   Clear
10:53 PM 39.0 °F 36.8 °F 30.9 °F 73% 29.94 in 10.0 mi WSW 3.5 mph - N/A   Clear
11:53 PM 37.9 °F 34.4 °F 30.0 °F 73% 29.91 in 10.0 mi South 4.6 mph - N/A   Clear